TAM3931 SBRJ-SBSP

Flight info

Callsign TAM3931
Flight time N/A
Altitude 34000
Route NAXOP UZ45 IBDAL
Aircraft A20N/M-SDE2E3FGHIRWXY/LB1

Departure

Time N/A
Airport Santos Dumont Airport (SBRJ)

Arrival

Time 2026-05-03 20:19
Airport Congonhas–Deputado Freitas Nobre Airport (SBSP)
Time Latitude Longitude Altitude Speed Heading
2026-05-03 20:15 -23.52754 -46.75788 4720 ft 181 kts 84°
2026-05-03 20:15 -23.52700 -46.74493 4728 ft 165 kts 100°
2026-05-03 20:15 -23.52971 -46.73304 4728 ft 160 kts 115°
2026-05-03 20:15 -23.53562 -46.72289 4588 ft 159 kts 131°
2026-05-03 20:16 -23.54346 -46.71455 4358 ft 156 kts 142°
2026-05-03 20:16 -23.55240 -46.70798 4164 ft 150 kts 146°
2026-05-03 20:16 -23.56052 -46.70213 3980 ft 136 kts 146°
2026-05-03 20:16 -23.56844 -46.69664 3869 ft 136 kts 148°
2026-05-03 20:17 -23.57645 -46.69113 3686 ft 135 kts 148°
2026-05-03 20:17 -23.58434 -46.68565 3505 ft 134 kts 148°
2026-05-03 20:17 -23.59218 -46.68025 3303 ft 132 kts 147°
2026-05-03 20:17 -23.59994 -46.67489 3123 ft 132 kts 147°
2026-05-03 20:18 -23.60771 -46.66952 2937 ft 132 kts 147°
2026-05-03 20:18 -23.61544 -46.66419 2761 ft 131 kts 147°
2026-05-03 20:18 -23.62298 -46.65901 2619 ft 129 kts 147°
2026-05-03 20:18 -23.62942 -46.65456 2612 ft 76 kts 147°
2026-05-03 20:19 -23.63217 -46.65265 2613 ft 29 kts 147°
2026-05-03 20:19 -23.63355 -46.65204 2610 ft 20 kts 185°
2026-05-03 20:19 -23.63389 -46.65291 2605 ft 17 kts 324°
2026-05-03 20:19 -23.63294 -46.65356 2605 ft 16 kts 326°
2026-05-03 20:20 -23.63206 -46.65421 2605 ft 15 kts 326°
2026-05-03 20:20 -23.63123 -46.65474 2605 ft 13 kts 328°
2026-05-03 20:20 -23.63044 -46.65517 2606 ft 12 kts 351°
2026-05-03 20:20 -23.62972 -46.65543 2606 ft 11 kts 328°
2026-05-03 20:21 -23.62912 -46.65585 2606 ft 10 kts 328°
2026-05-03 20:21 -23.62894 -46.65639 2605 ft 9 kts 235°
2026-05-03 20:21 -23.62930 -46.65698 2604 ft 8 kts 237°
2026-05-03 20:21 -23.62917 -46.65732 2604 ft 5 kts 330°
2026-05-03 20:22 -23.62901 -46.65743 2604 ft 0 kts 328°